CW6538 Cattolica IT current weather conditions

sailwx.info

Wind from 005 at 6 knots gusting 12

Air temperature 30.0° C
Dewpoint 15.7° C

Last reported at 2016-Aug-29 11:48 UTC.
Time now 2016-Aug-29 13:03 UTC

Location: N 43°58' E 012°44'.
View on Google Maps.

See reports from other nearby stations

  
Tides and Currents Weather Stations Pressure Air Temp Water Temp Dewpoint Dewpoint Depression Visibility Wind Speed Wind Dir Waves Ship Positions
date/time (UTC)wind fromknots sea level pressurealtimeterstation pressurevisibilityair tempwater tempwave heightnotes
2016-Aug-29 11:48 005 6 gusting 12 30.0
2016-Aug-29 11:44 045 7 gusting 11 30.0
2016-Aug-29 11:38 067 6 gusting 11 30.0
2016-Aug-29 11:34 061 5 gusting 12 30.0
2016-Aug-29 11:29 040 7 gusting 12 29.4
2016-Aug-29 11:23 041 7 gusting 12 29.4
2016-Aug-29 11:18 079 7 gusting 12 29.4
2016-Aug-29 11:13 066 6 gusting 11 29.4
2016-Aug-29 11:09 076 8 gusting 11 29.4
2016-Aug-29 11:04 033 6 gusting 11 29.4
2016-Aug-29 10:58 010 6 gusting 11 29.4
2016-Aug-29 10:54 065 6 gusting 11 29.4
2016-Aug-29 10:49 066 6 gusting 11 29.4
2016-Aug-29 10:44 040 7 gusting 12 28.9
2016-Aug-29 10:38 051 9 gusting 12 29.4
2016-Aug-29 10:33 048 6 gusting 10 29.4
2016-Aug-29 10:28 052 7 gusting 10 28.9
2016-Aug-29 10:24 034 7 gusting 10 29.4
2016-Aug-29 10:18 034 6 gusting 9 29.4
2016-Aug-29 10:13 056 5 gusting 8 29.4
2016-Aug-29 10:09 070 6 gusting 8 28.9
2016-Aug-29 10:04 055 5 gusting 8 29.4
2016-Aug-29 09:58 055 5 gusting 8 29.4
2016-Aug-29 09:54 044 5 gusting 9 28.9
2016-Aug-29 09:49 036 5 gusting 9 29.4
2016-Aug-29 09:43 005 5 gusting 8 28.9
2016-Aug-29 09:39 017 5 gusting 8 28.9
2016-Aug-29 09:33 052 5 gusting 7 28.9
2016-Aug-29 09:28 046 5 gusting 7 29.4
2016-Aug-29 09:23 037 4 gusting 6 29.4
2016-Aug-29 09:18 038 5 gusting 6 29.4
2016-Aug-29 09:14 360 3 gusting 6 29.4
2016-Aug-29 09:08 005 5 gusting 6 28.9
2016-Aug-29 09:03 009 4 gusting 6 28.9
2016-Aug-29 08:59 254 3 gusting 6 28.9
2016-Aug-29 08:53 355 3 gusting 6 28.9
2016-Aug-29 08:48 005 4 gusting 6 28.3
2016-Aug-29 08:43 018 3 gusting 6 28.9
2016-Aug-29 08:38 005 0 gusting 5 28.9
2016-Aug-29 08:34 355 1 gusting 5 28.3
2016-Aug-29 08:28 005 28.3
2016-Aug-29 08:24 021 3 gusting 5 28.3
2016-Aug-29 08:18 355 0 gusting 5 28.3
2016-Aug-29 08:14 350 2 gusting 5 28.3
2016-Aug-29 08:09 348 2 gusting 5 27.8
2016-Aug-29 08:03 350 0 gusting 5 27.8
2016-Aug-29 07:59 355 2 gusting 5 27.8
2016-Aug-29 07:53 344 3 gusting 5 27.8
2016-Aug-29 07:48 332 0 gusting 4 27.2
2016-Aug-29 07:43 304 27.2
2016-Aug-29 07:38 301 1 gusting 5 27.2
2016-Aug-29 07:34 344 26.7
2016-Aug-29 07:28 306 1 gusting 5 26.1
2016-Aug-29 07:23 258 0 gusting 4 26.1
2016-Aug-29 07:19 221 25.6
2016-Aug-29 07:14 225 1 gusting 4 25.0
2016-Aug-29 07:09 250 24.4
2016-Aug-29 07:03 227 0 gusting 3 23.9
2016-Aug-29 06:59 223 0 gusting 3 23.9
2016-Aug-29 06:53 215 23.3
2016-Aug-29 06:48 213 23.3
2016-Aug-29 06:44 213 22.8
2016-Aug-29 06:38 171 22.8
2016-Aug-29 06:34 164 2 gusting 4 22.2
2016-Aug-29 06:29 178 0 gusting 4 22.2
2016-Aug-29 06:23 189 1 gusting 4 21.7
2016-Aug-29 06:19 196 21.7
2016-Aug-29 06:13 196 21.1
2016-Aug-29 06:08 174 3 gusting 5 21.1
2016-Aug-29 06:03 186 0 gusting 5 20.6
2016-Aug-29 05:59 194 2 gusting 5 20.6
2016-Aug-29 05:53 199 3 gusting 5 20.0
2016-Aug-29 05:49 247 0 gusting 5 20.0
2016-Aug-29 05:43 192 0 gusting 5 20.0
2016-Aug-29 05:38 185 0 gusting 4 19.4
2016-Aug-29 05:34 190 2 gusting 4 19.4
2016-Aug-29 05:28 220 0 gusting 3 18.9
2016-Aug-29 05:23 220 18.9
2016-Aug-29 05:18 220 18.9
2016-Aug-29 05:13 220 2 gusting 4 18.3
2016-Aug-29 05:09 249 18.3
2016-Aug-29 05:03 254 0 gusting 4 18.3
2016-Aug-29 04:59 232 1 gusting 4 18.3
2016-Aug-29 04:53 186 3 gusting 5 18.3
2016-Aug-29 04:48 186 3 gusting 5 18.3
2016-Aug-29 04:43 202 3 gusting 4 18.3
2016-Aug-29 04:39 177 3 gusting 5 18.3
2016-Aug-29 04:33 192 3 gusting 5 18.3
2016-Aug-29 04:29 196 3 gusting 5 18.3
2016-Aug-29 04:24 196 3 gusting 5 18.3
2016-Aug-29 04:19 196 3 gusting 5 18.3
2016-Aug-29 04:13 186 4 gusting 6 18.3
2016-Aug-29 04:08 186 4 gusting 6 18.9
2016-Aug-29 04:04 176 3 gusting 5 18.9
2016-Aug-29 03:59 198 3 gusting 5 18.9
2016-Aug-29 03:54 192 3 gusting 5 18.9
2016-Aug-29 03:49 178 4 gusting 5 18.9
2016-Aug-29 03:43 190 4 gusting 4 18.9
2016-Aug-29 03:38 184 2 gusting 4 18.9
2016-Aug-29 03:34 184 3 gusting 5 18.9
2016-Aug-29 03:29 182 3 gusting 5 18.9
2016-Aug-29 03:23 194 284 gusting 284 18.9
2016-Aug-29 03:19 194 1 gusting 4 18.9
2016-Aug-29 03:13 194 2 gusting 4 18.9
2016-Aug-29 03:08 183 4 gusting 4 18.9
2016-Aug-29 03:04 180 3 gusting 4 18.9
2016-Aug-29 02:59 179 3 gusting 4 18.9
2016-Aug-29 02:53 204 2 gusting 4 18.9
2016-Aug-29 02:49 204 1 gusting 4 18.9
2016-Aug-29 02:43 204 1 gusting 5 18.9
2016-Aug-29 02:39 204 4 gusting 5 18.9
2016-Aug-29 02:33 204 3 gusting 5 18.9
2016-Aug-29 02:29 190 3 gusting 5 18.9
2016-Aug-29 02:24 202 4 gusting 5 18.9
2016-Aug-29 02:19 185 4 gusting 5 18.9
2016-Aug-29 02:13 178 3 gusting 5 18.9
2016-Aug-29 02:09 186 4 gusting 6 18.9
2016-Aug-29 02:03 176 4 gusting 6 19.4
2016-Aug-29 01:58 186 4 gusting 5 19.4
2016-Aug-29 01:53 190 3 gusting 5 19.4
2016-Aug-29 01:48 186 2 gusting 4 19.4
2016-Aug-29 01:43 186 3 gusting 4 19.4
2016-Aug-29 01:38 177 3 gusting 4 19.4
2016-Aug-29 01:33 154 3 gusting 4 19.4
2016-Aug-29 01:28 151 1 gusting 5 19.4
2016-Aug-29 01:24 186 3 gusting 5 19.4
2016-Aug-29 01:18 190 4 gusting 6 19.4
2016-Aug-29 01:13 174 3 gusting 6 19.4
2016-Aug-29 01:09 181 4 gusting 6 19.4
2016-Aug-29 01:03 190 4 gusting 6 19.4
2016-Aug-29 00:59 205 4 gusting 6 19.4
2016-Aug-29 00:53 197 4 gusting 5 19.4
2016-Aug-29 00:49 186 3 gusting 5 19.4
2016-Aug-29 00:44 190 4 gusting 5 19.4
2016-Aug-29 00:38 196 2 gusting 5 19.4
2016-Aug-29 00:33 203 3 gusting 5 19.4
2016-Aug-29 00:28 188 4 gusting 6 19.4
2016-Aug-29 00:23 186 4 gusting 6 19.4
2016-Aug-29 00:18 179 4 gusting 5 19.4
2016-Aug-29 00:13 200 3 gusting 5 19.4
2016-Aug-29 00:08 176 3 gusting 6 19.4
2016-Aug-29 00:03 176 4 gusting 6 19.4
2016-Aug-28 23:59 180 4 gusting 5 20.0
2016-Aug-28 23:54 177 2 gusting 5 20.0
2016-Aug-28 23:48 177 4 gusting 5 20.0
2016-Aug-28 23:43 168 4 gusting 5 20.0
2016-Aug-28 23:38 185 4 gusting 5 20.0
2016-Aug-28 23:34 187 3 gusting 5 20.0
2016-Aug-28 23:28 166 4 gusting 5 20.0
2016-Aug-28 23:24 162 2 gusting 6 20.0
2016-Aug-28 23:18 148 3 gusting 6 20.6
2016-Aug-28 23:14 161 3 gusting 4 20.6
2016-Aug-28 23:08 177 3 gusting 4 20.6
2016-Aug-28 23:03 167 3 gusting 5 20.6
2016-Aug-28 22:59 172 3 gusting 5 20.6
2016-Aug-28 22:53 184 3 gusting 4 20.6
2016-Aug-28 22:49 184 2 gusting 4 20.6
2016-Aug-28 22:44 194 2 gusting 3 20.6
2016-Aug-28 22:38 200 1 gusting 2 20.6
2016-Aug-28 22:34 200 0 gusting 4 20.6
2016-Aug-28 22:28 200 2 gusting 4 20.6
2016-Aug-28 22:24 202 1 gusting 4 20.6
2016-Aug-28 22:19 202 2 gusting 5 20.6
2016-Aug-28 22:14 202 4 gusting 5 20.6
2016-Aug-28 22:09 194 3 gusting 4 20.6
2016-Aug-28 22:04 180 1 gusting 3 20.6
2016-Aug-28 21:59 180 2 gusting 4 21.1
2016-Aug-28 21:54 180 2 gusting 4 21.1
2016-Aug-28 21:49 180 2 gusting 4 21.1
2016-Aug-28 21:44 177 3 gusting 4 21.1
2016-Aug-28 21:39 177 2 gusting 4 21.1
2016-Aug-28 21:33 177 2 gusting 5 21.1
2016-Aug-28 21:29 179 3 gusting 5 21.1
2016-Aug-28 21:23 175 2 gusting 4 21.1
2016-Aug-28 21:19 175 2 gusting 4 21.1
2016-Aug-28 21:14 178 3 gusting 4 21.1
2016-Aug-28 21:08 173 1 gusting 4 21.7
2016-Aug-28 21:04 173 3 gusting 5 21.7
2016-Aug-28 20:59 184 3 gusting 5 21.7
2016-Aug-28 20:54 168 3 gusting 4 21.7
2016-Aug-28 20:48 166 1 gusting 6 22.2
2016-Aug-28 20:43 163 3 gusting 6 22.2
2016-Aug-28 20:39 190 4 gusting 6 22.2
2016-Aug-28 20:34 176 2 gusting 4 22.2
2016-Aug-28 20:28 176 2 gusting 3 22.2
2016-Aug-28 20:24 176 1 gusting 4 22.2
2016-Aug-28 20:19 176 1 gusting 4 22.2
2016-Aug-28 20:13 182 1 gusting 4 22.2
2016-Aug-28 20:09 171 2 gusting 4 22.8
2016-Aug-28 20:03 169 0 gusting 4 22.8
2016-Aug-28 19:59 165 22.8
2016-Aug-28 19:53 165 22.8
2016-Aug-28 19:49 165 22.8
2016-Aug-28 19:44 165 23.3
2016-Aug-28 19:38 165 1 gusting 3 23.3
2016-Aug-28 19:34 161 1 gusting 3 23.3
2016-Aug-28 19:29 161 23.3
2016-Aug-28 19:23 161 0 gusting 4 23.9
2016-Aug-28 19:18 161 2 gusting 4 23.9
2016-Aug-28 19:14 161 1 gusting 3 23.9
2016-Aug-28 19:08 161 24.4
2016-Aug-28 19:04 169 2 gusting 4 24.4
2016-Aug-28 18:59 169 2 gusting 4 25.0
2016-Aug-28 18:53 132 25.0
2016-Aug-28 18:49 098 25.6
2016-Aug-28 18:43 098 25.6
2016-Aug-28 18:39 098 25.6
2016-Aug-28 18:34 098 1 gusting 2 26.1
2016-Aug-28 18:28 097 1 gusting 2 26.1
2016-Aug-28 18:24 049 26.1
2016-Aug-28 18:18 049 26.7
2016-Aug-28 18:14 049 26.7
2016-Aug-28 18:08 049 27.2
2016-Aug-28 18:04 049 27.2
2016-Aug-28 17:59 049 27.2
2016-Aug-28 17:54 049 0 gusting 2 27.2
2016-Aug-28 17:48 049 27.2
2016-Aug-28 17:44 049 27.8
2016-Aug-28 17:38 049 27.2
2016-Aug-28 17:34 049 27.2
2016-Aug-28 17:28 049 0 gusting 1 27.2
2016-Aug-28 17:24 049 27.2
2016-Aug-28 17:19 049 27.2
2016-Aug-28 17:14 049 27.2
2016-Aug-28 17:08 049 27.2
2016-Aug-28 17:04 049 27.2
2016-Aug-28 16:58 049 3 gusting 6 27.2
2016-Aug-28 16:54 053 2 gusting 6 27.2
2016-Aug-28 16:49 040 4 gusting 5 27.2
2016-Aug-28 16:44 030 3 gusting 5 27.8
2016-Aug-28 16:39 037 3 gusting 6 27.8
2016-Aug-28 16:34 034 4 gusting 6 27.8
2016-Aug-28 16:28 051 3 gusting 6 27.8
2016-Aug-28 16:24 057 4 gusting 7 27.8
2016-Aug-28 16:19 036 5 gusting 7 27.8
2016-Aug-28 16:13 028 4 gusting 8 27.8
2016-Aug-28 16:09 040 6 gusting 8 27.8
2016-Aug-28 16:03 044 5 gusting 8 27.8
2016-Aug-28 15:59 030 4 gusting 8 27.8
2016-Aug-28 15:54 033 5 gusting 8 28.3
2016-Aug-28 15:48 044 6 gusting 7 28.3
2016-Aug-28 15:44 017 5 gusting 7 28.3
2016-Aug-28 15:38 015 5 gusting 7 28.3
2016-Aug-28 15:34 034 4 gusting 7 28.3
2016-Aug-28 15:28 066 6 gusting 9 28.3
2016-Aug-28 15:24 042 6 gusting 9 28.9
2016-Aug-28 15:19 066 6 gusting 9 28.3
2016-Aug-28 15:14 049 4 gusting 10 28.3
2016-Aug-28 15:09 064 5 gusting 10 28.3
2016-Aug-28 15:04 044 4 gusting 8 28.3
2016-Aug-28 14:58 031 6 gusting 9 28.3
2016-Aug-28 14:54 072 4 gusting 7 27.8
2016-Aug-28 14:49 101 4 gusting 6 27.8
2016-Aug-28 14:44 052 4 gusting 6 27.8
2016-Aug-28 14:39 030 4 gusting 7 27.8
2016-Aug-28 14:34 067 2 gusting 7 27.2
2016-Aug-28 14:29 121 4 gusting 6 27.2
2016-Aug-28 14:23 119 4 gusting 6 27.2
2016-Aug-28 14:19 066 4 gusting 8 27.8
2016-Aug-28 14:13 019 5 gusting 8 27.2
2016-Aug-28 14:09 055 5 gusting 8 27.2
2016-Aug-28 13:59 036 6 gusting 7 27.8
2016-Aug-28 13:53 071 4 gusting 6 28.3
2016-Aug-28 13:49 074 4 gusting 6 28.3
2016-Aug-28 13:44 023 4 gusting 9 27.8
2016-Aug-28 13:39 071 6 gusting 9 28.3
2016-Aug-28 13:34 065 4 gusting 7 28.3
2016-Aug-28 13:28 072 4 gusting 9 28.3
2016-Aug-28 13:23 024 6 gusting 9 28.3
2016-Aug-28 13:19 038 6 gusting 9 28.3
2016-Aug-28 13:14 045 5 gusting 9 28.3
2016-Aug-28 13:08 044 6 gusting 10 28.9
2016-Aug-28 13:04 040 6 gusting 10 28.9
2016-Aug-28 12:58 036 4 gusting 9 28.3
2016-Aug-28 12:54 074 6 gusting 9 28.3
2016-Aug-28 12:49 028 4 gusting 9 28.3
2016-Aug-28 12:43 346 5 gusting 10 28.3
2016-Aug-28 12:39 048 6 gusting 10 28.3
2016-Aug-28 12:33 036 7 gusting 10 28.3
2016-Aug-28 12:29 038 7 gusting 9 28.3
2016-Aug-28 12:23 040 5 gusting 9 28.3
2016-Aug-28 12:18 350 6 gusting 10 28.3
2016-Aug-28 12:14 015 6 gusting 10 28.3
2016-Aug-28 12:09 025 6 gusting 10 28.3
2016-Aug-28 12:04 057 6 gusting 10 28.3
2016-Aug-28 11:58 065 6 gusting 11 28.3
2016-Aug-28 11:54 360 6 gusting 12 28.3
2016-Aug-28 11:48 019 8 gusting 12 28.3
2016-Aug-28 11:44 039 6 gusting 10 28.3
2016-Aug-28 11:39 046 6 gusting 10 28.3
2016-Aug-28 11:34 046 6 gusting 10 28.3
2016-Aug-28 11:28 344 5 gusting 9 28.3
2016-Aug-28 11:24 051 5 gusting 9 28.3
2016-Aug-28 11:18 052 6 gusting 9 28.3
2016-Aug-28 11:14 034 6 gusting 10 28.3
2016-Aug-28 11:09 049 6 gusting 10 28.3
2016-Aug-28 11:04 075 6 gusting 10 28.3
2016-Aug-28 10:59 029 6 gusting 10 28.3
2016-Aug-28 10:53 036 5 gusting 9 27.8
2016-Aug-28 10:49 025 6 gusting 9 28.3
2016-Aug-28 10:44 017 6 gusting 8 28.3
2016-Aug-28 10:39 338 5 gusting 9 28.3
2016-Aug-28 10:33 005 6 gusting 9 27.8
2016-Aug-28 10:29 031 6 gusting 9 28.3
2016-Aug-28 10:23 038 5 gusting 9 28.3
2016-Aug-28 10:19 014 6 gusting 9 28.3
2016-Aug-28 10:14 045 6 gusting 9 28.3
2016-Aug-28 10:08 047 6 gusting 9 28.3
2016-Aug-28 10:04 060 5 gusting 9 28.3
2016-Aug-28 09:58 020 6 gusting 9 28.3
2016-Aug-28 09:54 333 5 gusting 8 28.3
2016-Aug-28 09:48 355 6 gusting 8 28.3
2016-Aug-28 09:44 355 5 gusting 8 27.8
2016-Aug-28 09:38 030 5 gusting 7 28.3
2016-Aug-28 09:34 050 5 gusting 7 28.3
2016-Aug-28 09:29 049 5 gusting 7 28.3
2016-Aug-28 09:23 034 5 gusting 7 27.8
2016-Aug-28 09:19 339 6 gusting 8 27.8
2016-Aug-28 09:13 046 4 gusting 9 27.8
2016-Aug-28 09:08 338 6 gusting 9 27.8
2016-Aug-28 09:04 005 5 gusting 7 27.8
2016-Aug-28 08:59 036 5 gusting 7 27.8
2016-Aug-28 08:53 340 5 gusting 7 27.8
2016-Aug-28 08:49 030 4 gusting 6 27.8
2016-Aug-28 08:43 351 4 gusting 7 27.8
2016-Aug-28 08:39 011 5 gusting 7 27.8
2016-Aug-28 08:33 005 5 gusting 6 27.8
2016-Aug-28 08:29 038 4 gusting 6 27.8
2016-Aug-28 08:24 005 4 gusting 6 27.8
2016-Aug-28 08:19 355 3 gusting 6 27.8
2016-Aug-28 08:14 360 3 gusting 5 27.8
2016-Aug-28 08:08 017 3 gusting 6 27.8
2016-Aug-28 08:04 005 4 gusting 6 27.8
2016-Aug-28 07:58 027 3 gusting 5 27.8
2016-Aug-28 07:53 038 27.2
2016-Aug-28 07:49 163 26.7
2016-Aug-28 07:43 163 26.1
2016-Aug-28 07:39 163 26.1
2016-Aug-28 07:33 163 25.6
2016-Aug-28 07:29 163 25.6
2016-Aug-28 07:23 180 24.4
2016-Aug-28 07:19 163 23.9
2016-Aug-28 07:13 163 23.3
2016-Aug-28 07:09 170 23.3
2016-Aug-28 07:04 173 22.8
2016-Aug-28 06:59 173 22.8
2016-Aug-28 06:53 173 0 gusting 2 22.2
2016-Aug-28 06:49 173 22.2
2016-Aug-28 06:44 173 21.7
2016-Aug-28 06:38 173 0 gusting 3 21.7
2016-Aug-28 06:34 173 0 gusting 2 21.1
2016-Aug-28 06:29 173 0 gusting 4 21.1
2016-Aug-28 06:24 156 1 gusting 4 20.6
2016-Aug-28 06:19 155 2 gusting 4 20.6
2016-Aug-28 06:13 169 2 gusting 4 20.0
2016-Aug-28 06:09 173 0 gusting 3 20.0
2016-Aug-28 06:04 186 1 gusting 4 19.4
2016-Aug-28 05:59 204 19.4
2016-Aug-28 05:54 188 0 gusting 4 18.9
2016-Aug-28 05:48 196 0 gusting 4 18.9
2016-Aug-28 05:44 196 18.9
2016-Aug-28 05:38 182 2 gusting 4 18.3
2016-Aug-28 05:34 189 2 gusting 4 18.3
2016-Aug-28 05:28 186 1 gusting 4 18.3
2016-Aug-28 05:24 186 1 gusting 4 18.3
2016-Aug-28 05:18 187 18.3
2016-Aug-28 05:14 188 2 gusting 4 18.3
2016-Aug-28 05:08 188 2 gusting 4 18.3
2016-Aug-28 05:03 188 2 gusting 4 18.3
2016-Aug-28 04:59 188 2 gusting 4 18.3
2016-Aug-28 04:53 188 18.3
2016-Aug-28 04:49 188 18.3
2016-Aug-28 04:44 188 2 gusting 4 18.3
2016-Aug-28 04:38 188 1 gusting 2 18.3
2016-Aug-28 04:34 188 2 gusting 3 18.3
2016-Aug-28 04:29 188 1 gusting 3 18.3
2016-Aug-28 04:23 188 1 gusting 4 18.3
2016-Aug-28 04:19 212 0 gusting 1 18.3
2016-Aug-28 04:13 212 1 gusting 2 18.3
2016-Aug-28 04:09 212 1 gusting 3 18.3
2016-Aug-28 04:03 212 1 gusting 2 18.3
2016-Aug-28 03:59 212 1 gusting 3 18.3
2016-Aug-28 03:54 212 1 gusting 2 18.3
2016-Aug-28 03:49 212 18.3
2016-Aug-28 03:43 212 18.3
2016-Aug-28 03:38 212 0 gusting 4 18.3
2016-Aug-28 03:34 201 2 gusting 4 18.3
2016-Aug-28 03:28 197 4 gusting 5 18.3
2016-Aug-28 03:24 174 4 gusting 5 18.3
2016-Aug-28 03:19 177 3 gusting 4 18.9
2016-Aug-28 03:13 183 3 gusting 6 18.9
2016-Aug-28 03:09 184 3 gusting 6 18.9
2016-Aug-28 03:03 175 4 gusting 5 18.9
2016-Aug-28 02:59 171 4 gusting 5 18.9
2016-Aug-28 02:53 184 3 gusting 5 18.9
2016-Aug-28 02:48 182 3 gusting 5 18.9
2016-Aug-28 02:44 187 3 gusting 5 18.9
2016-Aug-28 02:38 163 2 gusting 5 18.9
2016-Aug-28 02:34 180 3 gusting 5 18.9
2016-Aug-28 02:29 187 4 gusting 5 18.9
2016-Aug-28 02:24 179 3 gusting 5 18.9
2016-Aug-28 02:18 175 3 gusting 5 18.9
2016-Aug-28 02:14 178 3 gusting 4 18.9
2016-Aug-28 02:08 187 3 gusting 5 18.9
2016-Aug-28 02:04 194 3 gusting 6 18.9
2016-Aug-28 01:59 182 4 gusting 6 18.9
2016-Aug-28 01:53 178 3 gusting 6 18.9
2016-Aug-28 01:49 187 4 gusting 6 18.9
2016-Aug-28 01:43 195 3 gusting 5 19.4
2016-Aug-28 01:39 172 3 gusting 5 19.4
2016-Aug-28 01:33 178 3 gusting 5 19.4
2016-Aug-28 01:29 192 3 gusting 5 19.4
2016-Aug-28 01:24 184 3 gusting 5 19.4
2016-Aug-28 01:19 166 2 gusting 5 19.4
2016-Aug-28 01:14 174 3 gusting 5 19.4
2016-Aug-28 01:08 198 4 gusting 5 19.4
2016-Aug-28 01:04 184 4 gusting 5 19.4
2016-Aug-28 00:58 187 4 gusting 5 19.4
2016-Aug-28 00:54 186 3 gusting 5 19.4
2016-Aug-28 00:48 186 4 gusting 5 19.4
2016-Aug-28 00:44 189 3 gusting 5 19.4
2016-Aug-28 00:38 178 4 gusting 5 20.0
2016-Aug-28 00:34 190 3 gusting 5 20.0
2016-Aug-28 00:29 182 3 gusting 5 20.0
2016-Aug-28 00:24 175 3 gusting 5 20.0
2016-Aug-28 00:18 177 3 gusting 5 20.0
2016-Aug-28 00:14 175 4 gusting 5 20.0
2016-Aug-28 00:09 184 4 gusting 5 20.0
2016-Aug-28 00:04 195 4 gusting 5 20.0
2016-Aug-27 23:58 177 3 gusting 5 20.0
2016-Aug-27 23:54 183 4 gusting 5 20.0
2016-Aug-27 23:48 177 4 gusting 5 20.0
2016-Aug-27 23:44 167 3 gusting 4 20.0
2016-Aug-27 23:38 167 1 gusting 5 20.0
2016-Aug-27 23:34 173 3 gusting 5 20.0
2016-Aug-27 23:28 174 3 gusting 5 20.0
2016-Aug-27 23:24 167 4 gusting 5 20.6
2016-Aug-27 23:18 175 4 gusting 5 20.6
2016-Aug-27 23:14 167 4 gusting 5 20.6
2016-Aug-27 23:08 194 4 gusting 5 20.6
2016-Aug-27 23:04 169 4 gusting 5 20.6
2016-Aug-27 22:58 184 3 gusting 6 20.6
2016-Aug-27 22:54 183 4 gusting 6 20.6
2016-Aug-27 22:49 176 4 gusting 6 20.6
2016-Aug-27 22:43 178 4 gusting 6 20.6
2016-Aug-27 22:39 181 3 gusting 5 20.6
2016-Aug-27 22:33 181 4 gusting 5 20.6
2016-Aug-27 22:29 181 2 gusting 4 20.6
2016-Aug-27 22:23 181 2 gusting 5 20.6
2016-Aug-27 22:19 181 4 gusting 5 20.6
2016-Aug-27 22:13 196 4 gusting 5 20.6
2016-Aug-27 22:08 202 3 gusting 5 20.6
2016-Aug-27 22:03 184 4 gusting 5 20.6
2016-Aug-27 21:59 179 4 gusting 5 21.1
2016-Aug-27 21:53 188 3 gusting 5 21.1
2016-Aug-27 21:49 184 3 gusting 4 21.1
2016-Aug-27 21:44 185 3 gusting 5 21.1
2016-Aug-27 21:38 172 3 gusting 6 21.1
2016-Aug-27 21:34 167 3 gusting 5 21.1
2016-Aug-27 21:29 167 2 gusting 6 21.1
2016-Aug-27 21:24 178 4 gusting 6 21.1
2016-Aug-27 21:19 185 4 gusting 6 21.1
2016-Aug-27 21:14 184 3 gusting 5 21.7
2016-Aug-27 21:09 178 3 gusting 4 21.7
2016-Aug-27 21:04 175 2 gusting 4 21.7
2016-Aug-27 20:59 167 2 gusting 5 21.7
2016-Aug-27 20:53 175 2 gusting 5 21.7
2016-Aug-27 20:48 190 3 gusting 5 22.2
2016-Aug-27 20:44 159 3 gusting 5 22.2
2016-Aug-27 20:39 182 2 gusting 5 22.2
2016-Aug-27 20:34 168 3 gusting 5 22.2
2016-Aug-27 20:29 167 1 gusting 4 22.2
2016-Aug-27 20:23 173 1 gusting 3 22.2
2016-Aug-27 20:19 173 1 gusting 4 22.8
2016-Aug-27 20:13 173 2 gusting 4 22.8
2016-Aug-27 20:09 167 1 gusting 3 22.8
2016-Aug-27 20:04 167 2 gusting 3 22.8
2016-Aug-27 19:58 167 1 gusting 2 22.8
2016-Aug-27 19:54 166 22.8
2016-Aug-27 19:48 166 22.8
2016-Aug-27 19:44 166 23.3
2016-Aug-27 19:38 166 1 gusting 4 23.3
2016-Aug-27 19:34 166 1 gusting 4 23.3
2016-Aug-27 19:28 167 1 gusting 4 23.3
2016-Aug-27 19:23 164 1 gusting 4 23.3
2016-Aug-27 19:19 164 2 gusting 4 23.9
2016-Aug-27 19:13 164 2 gusting 4 23.9
2016-Aug-27 19:09 157 1 gusting 2 23.9
2016-Aug-27 19:03 157 2 gusting 3 24.4
2016-Aug-27 18:59 150 24.4
2016-Aug-27 18:53 150 24.4
2016-Aug-27 18:49 150 0 gusting 3 24.4
2016-Aug-27 18:44 104 0 gusting 3 25.0
2016-Aug-27 18:38 103 1 gusting 3 25.0
2016-Aug-27 18:34 102 0 gusting 3 25.0
2016-Aug-27 18:29 098 0 gusting 3 25.0
2016-Aug-27 18:24 094 25.6
2016-Aug-27 18:19 094 25.6
2016-Aug-27 18:13 094 25.6
2016-Aug-27 18:09 094 25.6
2016-Aug-27 18:04 094 25.6
2016-Aug-27 17:58 094 26.1
2016-Aug-27 17:54 094 26.1
2016-Aug-27 17:49 094 26.1
2016-Aug-27 17:44 094 1 gusting 3 26.1
2016-Aug-27 17:38 067 26.1
2016-Aug-27 17:34 063 26.1
2016-Aug-27 17:28 063 26.1
2016-Aug-27 17:24 063 1 gusting 5 26.1
2016-Aug-27 17:18 063 3 gusting 6 26.1
2016-Aug-27 17:14 052 3 gusting 6 26.1
2016-Aug-27 17:09 038 2 gusting 6 26.1
2016-Aug-27 17:04 077 3 gusting 6 26.1
2016-Aug-27 16:59 030 3 gusting 6 26.1
2016-Aug-27 16:53 071 2 gusting 6 26.1
2016-Aug-27 16:49 071 4 gusting 7 26.1
2016-Aug-27 16:43 056 3 gusting 8 26.7
2016-Aug-27 16:39 050 5 gusting 8 26.7
2016-Aug-27 16:33 030 3 gusting 8 26.7
2016-Aug-27 16:29 035 3 gusting 6 26.7
2016-Aug-27 16:23 066 4 gusting 8 26.7
2016-Aug-27 16:19 044 5 gusting 8 26.7
2016-Aug-27 16:13 027 6 gusting 8 26.7
2016-Aug-27 16:09 051 6 gusting 8 27.2
2016-Aug-27 16:03 015 4 gusting 8 27.2
2016-Aug-27 15:59 040 6 gusting 8 27.2
2016-Aug-27 15:53 034 6 gusting 8 27.2
2016-Aug-27 15:49 059 5 gusting 8 27.2
2016-Aug-27 15:43 048 5 gusting 7 27.8
2016-Aug-27 15:39 039 4 gusting 8 27.2
2016-Aug-27 15:33 038 5 gusting 9 27.2
2016-Aug-27 15:29 062 6 gusting 9 27.2
2016-Aug-27 15:24 075 4 gusting 8 27.2
2016-Aug-27 15:18 049 6 gusting 8 27.2
2016-Aug-27 15:14 055 5 gusting 8 27.2
2016-Aug-27 15:08 067 5 gusting 9 27.2
2016-Aug-27 15:04 049 5 gusting 9 27.2
2016-Aug-27 14:59 360 6 gusting 9 27.2
2016-Aug-27 14:54 063 5 gusting 8 27.2
2016-Aug-27 14:49 053 4 gusting 8 26.7
2016-Aug-27 14:43 092 5 gusting 8 27.2
2016-Aug-27 14:39 058 5 gusting 8 27.8
2016-Aug-27 14:34 057 5 gusting 9 27.8
2016-Aug-27 14:28 049 5 gusting 9 27.8
2016-Aug-27 14:24 040 5 gusting 8 28.3
2016-Aug-27 14:19 081 5 gusting 8 28.3
2016-Aug-27 14:13 028 5 gusting 8 28.3
2016-Aug-27 14:09 026 6 gusting 9 28.3
2016-Aug-27 14:04 044 6 gusting 9 28.3
2016-Aug-27 13:58 117 5 gusting 10 28.3
2016-Aug-27 13:54 073 5 gusting 10 28.3
2016-Aug-27 13:49 066 4 gusting 9 28.3
2016-Aug-27 13:43 089 5 gusting 10 28.3
2016-Aug-27 13:39 033 6 gusting 10 28.3
2016-Aug-27 13:34 059 4 gusting 9 27.8
2016-Aug-27 13:29 024 6 gusting 9 28.3
2016-Aug-27 13:24 360 6 gusting 9 28.3
2016-Aug-27 13:18 049 6 gusting 10 28.3
2016-Aug-27 13:14 016 6 gusting 10 28.3
2016-Aug-27 13:09 044 5 gusting 10 28.3
2016-Aug-27 13:04 027 6 gusting 10 28.3